Home   Weather   Linz   Past weeks

Flag for Austria Past Weather in Linz, Upper Austria, Austria — Yesterday and Last 2 Weeks

Now
54 °F

Clear.


Feels Like: 53 °F
Forecast: 35 / 66 °F
Wind: 3 mph from Northeast

Location: Linz / Hoersching-Flughafen

Current Time: Apr 24, 2017 at 9:09:43 pm

Latest Report: Apr 24, 2017 at 8:20 pm


Visibility: 10 mi

Pressure: 29.89 "Hg

Humidity: 51%

Dew Point: 36 °F

Location of LinzLocation

Past Weather in Linz — Graph

°F

Linz Temperature Yesterday

Maximum temperature yesterday: 50 °F (at 3:50 pm)
Minimum temperature yesterday: 39 °F (at 3:50 am)
Average temperature yesterday: 44 °F

High & Low Weather Summary for the Past Weeks

 TemperatureHumidityPressure
High72 °F (Apr 10, 3:20 pm)100% (Apr 18, 8:50 pm)30.51 "Hg (Apr 18, 8:50 pm)
Low28 °F (Apr 20, 5:20 am)39% (Apr 24, 3:50 pm)29.83 "Hg (Apr 13, 5:50 am)
Average46 °F69%30.12 "Hg
* Reported Apr 9 7:20 pm — Apr 24 7:50 pm, Linz, Weather by CustomWeather, © 2017

Note: Actual official high and low records may vary slightly from our data, if they occured in-between our weather recording intervals... More about our weather records

Advertising

Linz Weather History for the Previous 24 Hours

Scroll right to see more
 ConditionsComfort  
Time TempWeatherWind HumidityBarometerVisibility
7:50 pm
Mon, Apr 24
55 °FSunny.3 mph44%29.89 "Hg10 mi
7:20 pm57 °FSunny.2 mph44%29.89 "Hg10 mi
6:50 pm59 °FSunny.2 mph39%29.92 "Hg10 mi
6:20 pm59 °FSunny.2 mph45%29.92 "Hg10 mi
5:50 pm59 °FSunny.3 mph39%29.92 "Hg10 mi
5:20 pm59 °FSunny.6 mph39%29.95 "Hg10 mi
4:50 pm59 °FSunny.1 mph42%29.95 "Hg10 mi
4:20 pm57 °FSunny.3 mph39%29.95 "Hg10 mi
3:50 pm57 °FSunny.2 mph39%29.98 "Hg10 mi
3:20 pm55 °FPassing clouds.3 mph41%29.98 "HgN/A
2:50 pm55 °FSunny.3 mph41%30.01 "Hg10 mi
2:20 pm55 °FSunny.2 mph41%30.01 "Hg10 mi
1:50 pm54 °FSunny.3 mph47%30.04 "Hg10 mi
1:20 pm52 °FSunny.5 mph47%30.04 "Hg10 mi
12:50 pm52 °FPassing clouds.5 mph41%30.07 "HgN/A
12:20 pm50 °FPassing clouds.6 mph47%30.07 "HgN/A
11:50 am50 °FPassing clouds.7 mph47%30.09 "HgN/A
11:20 am50 °FPassing clouds.6 mph47%30.09 "HgN/A
10:50 am48 °FPassing clouds.7 mph46%30.12 "HgN/A
10:20 am46 °FPassing clouds.5 mph53%30.12 "HgN/A
9:50 am45 °FSunny.5 mph57%30.12 "Hg10 mi
9:20 am43 °FSunny.2 mph61%30.12 "Hg10 mi
8:50 am41 °FPassing clouds.3 mph66%30.15 "HgN/A
8:20 am39 °FPassing clouds.5 mph70%30.15 "HgN/A
7:50 am37 °FSunny.1 mph75%30.15 "Hg10 mi
7:20 am32 °FSunny.2 mph87%30.15 "Hg10 mi
6:50 am32 °FPassing clouds.3 mph87%30.15 "HgN/A
6:20 am30 °FPassing clouds.2 mph86%30.15 "HgN/A
5:50 am30 °FPassing clouds.2 mph86%30.18 "HgN/A
5:20 am30 °FPassing clouds.1 mph86%30.18 "HgN/A
4:50 am32 °FChilly.2 mph80%30.18 "HgN/A
4:20 am30 °FChilly.5 mph86%30.18 "HgN/A
3:50 am32 °FChilly.6 mph80%30.18 "HgN/A
3:20 am34 °FChilly.5 mph75%30.18 "HgN/A
2:50 am36 °FChilly.5 mph75%30.21 "HgN/A
2:20 am34 °FChilly.7 mph81%30.21 "HgN/A
1:50 am36 °FChilly.2 mph75%30.21 "HgN/A
1:20 am37 °FChilly.2 mph70%30.21 "HgN/A
12:50 am39 °FPassing clouds.3 mph65%30.21 "HgN/A
12:20 am39 °FPassing clouds.2 mph65%30.24 "HgN/A
11:50 pm
Sun, Apr 23
39 °FPassing clouds.6 mph70%30.21 "HgN/A
11:20 pm41 °FPassing clouds.6 mph66%30.24 "HgN/A
10:50 pm41 °FPassing clouds.6 mph66%30.24 "HgN/A
10:20 pm41 °FPassing clouds.8 mph66%30.21 "HgN/A
9:50 pm43 °FPassing clouds.10 mph57%30.21 "HgN/A
9:20 pm43 °FPassing clouds.9 mph57%30.21 "HgN/A
Weather by CustomWeather, © 2017

See weather overviewHow to use our weather pages